Location: Borojevi?i
(45.0486°N, 16.2297°E)
Time: 03:41:26
(UTC+00:00)

Cosmos 2360 Rocket - Pass Details

Date: 08 August 2020
Orbit: 834 x 845 km, 71.0° (Epoch: 25 September)

Event Time Altitude Azimuth Distance (km) Brightness Sun altitude
Rises 20:29:04 0° 342° (NNW) 3,415 6.6 -20.1°
Reaches altitude 10° 20:32:11 10° 359° (N) 2,476 5.4 -20.4°
Maximum altitude 20:36:22 21° 46° (NE) 1,837 4.0 -20.9°
Enters shadow 20:38:59 15° 80° (E) 2,111 4.0 -21.2°
